FENGYUN 1C DEB, 30530

Orbit data source: Space-Track

FENGYUN 1C DEB, 30530 is space debris in SSO originally from a launch on Mon, 10 May 1999 UTC launched from the Taiyaun Space Center, China (TSC). Fengyun 1C debris stems from the Chinese weather satellite Fengyun-1C, which was intentionally destroyed by a Chinese anti-satellite missile in 2007. This event dramatically increased the amount of space debris, with thousands of trackable fragments posing hazards to satellites and human spaceflight. The Fengyun 1C debris cloud has become a focal point in discussions about space sustainability and the need for international regulations to prevent the creation of new debris.

Loading next visibility...
Identifier
30530, 1999-025AJU
Orbit
SSO
Country
Flag of CNCN / PRC
Related business
Manufacturer
Unknown
Mission
Spacecraft
Bus & Motor
Unknown
Mass
Unknown
Launch date (UTC)
1999-05-10 (27 years ago)
Launch vehicle
Unknown
Launch site
Taiyaun Space Center, China (TSC)
Object type
Payload
Rocket body
Debris
Shape & HBR
Unknown shape, 0.1 m
Radar Cross Section
Small (<0.1 m²)

Expand to show TLE details & history
Last TLE update: 1 day ago

TLE from 1 day ago
0 FENGYUN 1C DEB
1 30530U 99025AJU 26254.34280156  .00000378  00000-0  13412-3 0  9996
2 30530  98.3654 290.6137 0099633  42.5258  19.4185 14.37143829 27012
Epoch: 2026-09-11T08:13Z
TLE epoch observation values (Epoch: 2026-09-11T08:13:38.054Z)
Latitude
61.28391°
Longitude
161.35361°
Altitude
711.324 km
Speed
7.541 km/s
True Right ascension
18h 20m 31s
True Declination
61° 08' 16"
Sunlit
Object was in daylight at epoch
Visualization orbit readout
Latitude
Unknown
Longitude
Unknown
Altitude
Unknown
Speed
Unknown
Apparent Right ascension
Unknown
Apparent Declination
Unknown
Sunlit
N/A
Visualization observer readout
Local Sidereal Time
08:29:02
Azimuth
Unknown
Elevation
Unknown
Doppler factor
Unknown
Orbital elements
Apogee altitude
836.24 km
Perigee altitude
693.9 km
Semi-major axis
7,143.207 km
Eccentricity
0.00996
Inclination
98.3654°
RAAN
290.6137°
Arg. of periapsis
42.5258°
True anomaly
19.80259°
Mean anomaly
19.4185°
Eccentric anomaly
19.61009°
Mean motion
3.59504 °/min
Orbital period
100.14 mins
BSTAR
0.00013412
Loading maneuver chart data...
Computing Atmospheric mass density...
Loading historical data...
Loading historical data...
Loading historical data...
Loading historical data...
Loading historical data...
Loading historical data...
Loading historical data...

Documentation

Showing up to 5 results
|